• In Netherlands
  • List of Countries
  • For 7 days
  • Water Temperature
  • Satellite Maps
  • Weather Map
  • Weather Widgets
  • user-avatar
    Login

    Hourly Weather Quito

    Today, 24 January, Tuesday

    Time Temperature Precipitation Wind Pressure Humidity
    00:00 +17°C° 1 mm 2 mps 622 mmHg 97%
    01:00 +17°C° 0 mm 2 mps 622 mmHg 97%
    02:00 +17°C° 0.6 mm 2 mps 622 mmHg 97%
    03:00 +17°C° 0.6 mm 2 mps 622 mmHg 96%
    04:00 +16°C° 0.6 mm 3 mps 622 mmHg 96%
    05:00 +16°C° 0.7 mm 3 mps 622 mmHg 96%
    06:00 +16°C° 0.7 mm 3 mps 622 mmHg 96%
    07:00 +16°C° 0 mm 3 mps 623 mmHg 96%
    08:00 +17°C° 0.2 mm 3 mps 623 mmHg 92%
    09:00 +17°C° 0.2 mm 3 mps 623 mmHg 89%
    10:00 +18°C° 0.2 mm 3 mps 623 mmHg 85%
    11:00 +20°C° 0 mm 3 mps 623 mmHg 74%
    12:00 +22°C° 0 mm 3 mps 623 mmHg 62%
    13:00 +25°C° 0 mm 4 mps 623 mmHg 51%
    14:00 +26°C° 0 mm 3 mps 623 mmHg 51%
    15:00 +26°C° 0 mm 3 mps 623 mmHg 51%
    16:00 +26°C° 0 mm 3 mps 622 mmHg 51%
    17:00 +24°C° 0.2 mm 3 mps 622 mmHg 62%
    18:00 +20°C° 0.2 mm 2 mps 621 mmHg 72%
    19:00 +18°C° 0.2 mm 2 mps 621 mmHg 82%
    20:00 +17°C° 0 mm 2 mps 621 mmHg 85%
    21:00 +17°C° 0 mm 2 mps 622 mmHg 89%
    22:00 +16°C° 0 mm 2 mps 622 mmHg 92%
    23:00 +15°C° 0 mm 2 mps 622 mmHg 94%

    Tomorrow, 25 January, Wednesday

    Time Temperature Precipitation Wind Pressure Humidity
    00:00 +15°C° 0 mm 2 mps 622 mmHg 95%
    01:00 +15°C° 0 mm 2 mps 621 mmHg 96%
    02:00 +14°C° 0 mm 2 mps 621 mmHg 97%
    03:00 +14°C° 0 mm 2 mps 621 mmHg 97%
    04:00 +14°C° 0 mm 2 mps 621 mmHg 97%
    05:00 +14°C° 0 mm 2 mps 621 mmHg 95%
    06:00 +15°C° 0 mm 2 mps 622 mmHg 93%
    07:00 +16°C° 0 mm 2 mps 622 mmHg 90%
    08:00 +19°C° 0 mm 2 mps 623 mmHg 77%
    09:00 +21°C° 0 mm 2 mps 624 mmHg 64%
    10:00 +25°C° 0 mm 2 mps 625 mmHg 50%
    11:00 +27°C° 0 mm 3 mps 625 mmHg 46%
    12:00 +28°C° 0 mm 3 mps 625 mmHg 41%
    13:00 +29°C° 0 mm 4 mps 624 mmHg 37%
    14:00 +29°C° 0 mm 4 mps 624 mmHg 39%
    15:00 +29°C° 0 mm 4 mps 623 mmHg 40%
    16:00 +28°C° 0 mm 4 mps 622 mmHg 42%
    17:00 +25°C° 0.3 mm 3 mps 622 mmHg 56%
    18:00 +21°C° 0.3 mm 3 mps 622 mmHg 69%
    19:00 +18°C° 0.3 mm 2 mps 621 mmHg 82%
    20:00 +18°C° 0.4 mm 2 mps 622 mmHg 86%
    21:00 +17°C° 0.4 mm 2 mps 622 mmHg 89%
    22:00 +16°C° 0.4 mm 2 mps 623 mmHg 92%
    23:00 +16°C° 0.2 mm 2 mps 623 mmHg 93%

    Day after tomorrow, 26 January, Thursday

    Time Temperature Precipitation Wind Pressure Humidity
    00:00 +16°C° 0.2 mm 2 mps 622 mmHg 95%
    01:00 +16°C° 0.2 mm 1 mps 622 mmHg 96%
    02:00 +15°C° 0 mm 1 mps 622 mmHg 96%
    03:00 +15°C° 0 mm 1 mps 622 mmHg 96%
    04:00 +15°C° 0 mm 1 mps 621 mmHg 97%
    05:00 +16°C° 0 mm 1 mps 622 mmHg 95%
    06:00 +16°C° 0 mm 1 mps 622 mmHg 94%
    07:00 +18°C° 0 mm 1 mps 623 mmHg 92%
    08:00 +20°C° 0 mm 1 mps 624 mmHg 82%
    09:00 +20°C° 0 mm 0 mps 624 mmHg 72%
    10:00 +22°C° 0 mm 0 mps 625 mmHg 63%
    11:00 +25°C° 0 mm 1 mps 625 mmHg 57%
    12:00 +26°C° 0 mm 1 mps 625 mmHg 52%
    13:00 +27°C° 0 mm 1 mps 624 mmHg 46%
    14:00 +27°C° 0.1 mm 1 mps 624 mmHg 48%
    15:00 +27°C° 0.1 mm 1 mps 623 mmHg 49%
    16:00 +26°C° 0.1 mm 2 mps 622 mmHg 50%
    17:00 +24°C° 0.2 mm 2 mps 622 mmHg 60%
    18:00 +21°C° 0.2 mm 2 mps 622 mmHg 70%
    19:00 +19°C° 0.2 mm 2 mps 622 mmHg 79%
    20:00 +19°C° 0.1 mm 1 mps 622 mmHg 82%
    21:00 +19°C° 0.1 mm 1 mps 622 mmHg 84%
    22:00 +18°C° 0.1 mm 1 mps 622 mmHg 87%
    23:00 +18°C° 0 mm 1 mps 622 mmHg 88%

    27 January, Friday

    Time Temperature Precipitation Wind Pressure Humidity
    00:00 +16°C° 0 mm 1 mps 622 mmHg 89%
    01:00 +16°C° 0 mm 1 mps 622 mmHg 90%
    02:00 +16°C° 0 mm 1 mps 621 mmHg 91%
    03:00 +15°C° 0 mm 1 mps 621 mmHg 93%
    04:00 +15°C° 0 mm 1 mps 621 mmHg 94%
    05:00 +16°C° 0 mm 1 mps 621 mmHg 92%
    06:00 +16°C° 0 mm 1 mps 622 mmHg 90%
    07:00 +18°C° 0 mm 1 mps 622 mmHg 88%
    08:00 +21°C° 0 mm 1 mps 623 mmHg 75%
    09:00 +23°C° 0 mm 1 mps 624 mmHg 61%
    10:00 +26°C° 0 mm 2 mps 625 mmHg 48%
    11:00 +27°C° 0 mm 2 mps 625 mmHg 43%
    12:00 +28°C° 0 mm 2 mps 624 mmHg 37%
    13:00 +29°C° 0 mm 3 mps 624 mmHg 32%
    14:00 +29°C° 0 mm 3 mps 623 mmHg 32%
    15:00 +28°C° 0 mm 3 mps 623 mmHg 33%
    16:00 +28°C° 0 mm 4 mps 622 mmHg 33%
    17:00 +26°C° 0 mm 3 mps 622 mmHg 40%
    18:00 +22°C° 0 mm 3 mps 621 mmHg 46%
    19:00 +20°C° 0 mm 3 mps 621 mmHg 53%
    20:00 +19°C° 0 mm 3 mps 621 mmHg 54%
    21:00 +18°C° 0 mm 3 mps 622 mmHg 55%
    22:00 +17°C° 0 mm 3 mps 622 mmHg 56%
    23:00 +16°C° 0 mm 3 mps 622 mmHg 58%

    28 January, Saturday

    Time Temperature Precipitation Wind Pressure Humidity
    00:00 +16°C° 0 mm 3 mps 621 mmHg 60%
    01:00 +14°C° 0 mm 3 mps 621 mmHg 61%
    02:00 +13°C° 0 mm 3 mps 620 mmHg 61%
    03:00 +14°C° 0 mm 2 mps 620 mmHg 61%
    04:00 +13°C° 0 mm 2 mps 620 mmHg 61%
    05:00 +14°C° 0 mm 2 mps 621 mmHg 60%
    06:00 +15°C° 0 mm 2 mps 621 mmHg 59%
    07:00 +15°C° 0 mm 2 mps 622 mmHg 58%
    08:00 +18°C° 0.1 mm 2 mps 623 mmHg 49%
    09:00 +21°C° 0.1 mm 3 mps 624 mmHg 40%
    10:00 +25°C° 0.1 mm 3 mps 624 mmHg 30%
    11:00 +26°C° 0 mm 3 mps 624 mmHg 27%
    12:00 +28°C° 0 mm 3 mps 624 mmHg 24%
    13:00 +29°C° 0 mm 4 mps 624 mmHg 21%
    14:00 +29°C° 0 mm 4 mps 623 mmHg 22%
    15:00 +29°C° 0 mm 4 mps 623 mmHg 23%
    16:00 +28°C° 0 mm 4 mps 623 mmHg 24%
    17:00 +26°C° 0 mm 3 mps 622 mmHg 32%
    18:00 +22°C° 0 mm 3 mps 622 mmHg 40%
    19:00 +19°C° 0 mm 3 mps 621 mmHg 48%
    20:00 +18°C° 0 mm 3 mps 622 mmHg 49%
    21:00 +17°C° 0 mm 3 mps 622 mmHg 51%
    22:00 +16°C° 0 mm 3 mps 622 mmHg 52%
    23:00 +16°C° 0 mm 3 mps 622 mmHg 54%

    29 January, Sunday

    Time Temperature Precipitation Wind Pressure Humidity
    00:00 +14°C° 0 mm 3 mps 622 mmHg 56%
    01:00 +14°C° 0 mm 3 mps 621 mmHg 57%
    02:00 +13°C° 0 mm 3 mps 621 mmHg 58%
    03:00 +14°C° 0 mm 2 mps 621 mmHg 60%
    04:00 +13°C° 0 mm 2 mps 620 mmHg 61%
    05:00 +14°C° 0 mm 2 mps 621 mmHg 61%
    06:00 +14°C° 0 mm 2 mps 622 mmHg 61%
    07:00 +15°C° 0 mm 1 mps 622 mmHg 61%
    08:00 +17°C° 0 mm 2 mps 623 mmHg 52%
    09:00 +20°C° 0 mm 2 mps 624 mmHg 43%
    10:00 +23°C° 0 mm 2 mps 625 mmHg 34%
    11:00 +24°C° 0 mm 2 mps 625 mmHg 31%
    12:00 +26°C° 0 mm 2 mps 625 mmHg 27%
    13:00 +27°C° 0 mm 2 mps 625 mmHg 24%
    14:00 +27°C° 0 mm 2 mps 624 mmHg 26%
    15:00 +27°C° 0 mm 2 mps 624 mmHg 28%
    16:00 +26°C° 0 mm 2 mps 623 mmHg 30%
    17:00 +23°C° 0 mm 2 mps 623 mmHg 37%
    18:00 +20°C° 0 mm 2 mps 622 mmHg 44%
    19:00 +17°C° 0 mm 2 mps 621 mmHg 51%
    20:00 +16°C° 0 mm 1 mps 621 mmHg 52%
    21:00 +15°C° 0 mm 1 mps 621 mmHg 53%
    22:00 +15°C° 0 mm 1 mps 621 mmHg 54%
    23:00 +14°C° 0 mm 1 mps 621 mmHg 55%
    Show more